�������ċp�F�����K�X���j�^�v���󋵏��
Date,Time,�ċp�F�����K�X���j�^(cps),����,����(m/s)
2023/05/09,00:00,1.5,�k��,1.5
2023/05/09,00:10,1.6,�k��,2.0
2023/05/09,00:20,1.5,�k��,1.2
2023/05/09,00:30,1.4,�k��,1.6
2023/05/09,00:40,1.4,�k��,1.7
2023/05/09,00:50,1.4,�k��,2.3
2023/05/09,01:00,1.4,���k��,3.0
2023/05/09,01:10,1.5,���k��,3.0
2023/05/09,01:20,1.5,�k��,2.3
2023/05/09,01:30,1.4,�k��,1.5
2023/05/09,01:40,1.5,�k��,2.8
2023/05/09,01:50,1.5,�k��,2.7
2023/05/09,02:00,1.5,�k��,2.5
2023/05/09,02:10,1.4,�k��,1.9
2023/05/09,02:20,1.6,�k��,1.9
2023/05/09,02:30,1.4,�k��,2.0
2023/05/09,02:40,1.5,�k��,2.0
2023/05/09,02:50,1.4,�k��,1.9
2023/05/09,03:00,1.5,�k��,1.9
2023/05/09,03:10,1.4,�k��,1.8
2023/05/09,03:20,1.5,�k��,1.5
2023/05/09,03:30,1.5,�k��,1.4
2023/05/09,03:40,1.6,�k�k��,0.9
2023/05/09,03:50,1.5,�k��,0.7
2023/05/09,04:00,1.5,���k��,1.1
2023/05/09,04:10,1.5,���k��,0.5
2023/05/09,04:20,1.6,���k��,0.7
2023/05/09,04:30,1.5,-,CALM
2023/05/09,04:40,1.5,���k��,1.2
2023/05/09,04:50,1.6,���k��,2.0
2023/05/09,05:00,1.5,���k��,2.1
2023/05/09,05:10,1.4,���k��,1.0
2023/05/09,05:20,1.5,-,CALM
2023/05/09,05:30,1.5,-,CALM
2023/05/09,05:40,1.5,���k��,0.9
2023/05/09,05:50,1.4,�k��,1.9
2023/05/09,06:00,1.5,���k��,1.9
2023/05/09,06:10,1.6,-,CALM
2023/05/09,06:20,1.5,���k��,1.4
2023/05/09,06:30,1.4,�k��,1.6
2023/05/09,06:40,1.5,���k��,1.6
2023/05/09,06:50,1.5,���k��,1.5
2023/05/09,07:00,1.5,�k,0.9
2023/05/09,07:10,1.5,�k,1.6
2023/05/09,07:20,1.4,�k�k��,1.2
2023/05/09,07:30,1.4,�k��,0.8
2023/05/09,07:40,1.6,-,CALM
2023/05/09,07:50,1.6,��,1.1
2023/05/09,08:00,1.6,��,1.4
2023/05/09,08:10,1.5,��,1.5
2023/05/09,08:20,1.4,���k��,1.6
2023/05/09,08:30,1.5,��,1.9
2023/05/09,08:40,1.5,��,1.7
2023/05/09,08:50,1.6,��,1.7
2023/05/09,09:00,1.5,��,2.2
2023/05/09,09:10,1.5,���쓌,2.1
2023/05/09,09:20,1.5,���쓌,2.1
2023/05/09,09:30,1.5,���쓌,1.9
2023/05/09,09:40,1.6,���쓌,2.0
2023/05/09,09:50,1.5,���쓌,2.4
2023/05/09,10:00,1.5,���쓌,2.1
2023/05/09,10:10,1.5,���쓌,2.4
2023/05/09,10:20,1.4,���쓌,2.4
2023/05/09,10:30,1.5,���쓌,2.6
2023/05/09,10:40,1.5,���쓌,2.5
2023/05/09,10:50,1.5,���쓌,2.3
2023/05/09,11:00,1.5,���쓌,2.5
2023/05/09,11:10,1.6,���쓌,2.2
2023/05/09,11:20,1.5,�쓌,3.1
2023/05/09,11:30,1.5,�쓌,3.1
2023/05/09,11:40,1.5,�쓌,3.9
2023/05/09,11:50,1.5,�쓌,3.5
2023/05/09,12:00,1.4,�쓌,4.0
2023/05/09,12:10,1.4,�쓌,3.7
2023/05/09,12:20,1.5,�쓌,3.7
2023/05/09,12:30,1.4,��쓌,3.5
2023/05/09,12:40,1.4,��,4.3
2023/05/09,12:50,1.4,��쓌,3.9
2023/05/09,13:00,1.5,��쓌,3.6
2023/05/09,13:10,1.4,��쓌,4.4
2023/05/09,13:20,1.5,��쓌,4.5
2023/05/09,13:30,1.5,��쓌,4.0
2023/05/09,13:40,1.5,��쓌,3.3
2023/05/09,13:50,1.5,��쓌,3.5
2023/05/09,14:00,1.4,��쓌,3.7
2023/05/09,14:10,1.5,��쓌,3.9
2023/05/09,14:20,1.4,��쓌,3.9
2023/05/09,14:30,1.5,��쓌,4.4
2023/05/09,14:40,1.4,��쓌,4.0
2023/05/09,14:50,1.5,��쓌,4.1
2023/05/09,15:00,1.4,��쓌,4.3
2023/05/09,15:10,1.4,��쓌,4.0
2023/05/09,15:20,1.6,��쓌,4.1
2023/05/09,15:30,1.4,��쓌,3.6
2023/05/09,15:40,1.5,��쓌,3.6
2023/05/09,15:50,1.5,��쓌,3.7
2023/05/09,16:00,1.5,��쓌,3.9
2023/05/09,16:10,1.5,��쓌,4.2
2023/05/09,16:20,1.5,��쓌,3.6
2023/05/09,16:30,1.4,��쓌,3.8
2023/05/09,16:40,1.6,��쓌,3.8
2023/05/09,16:50,1.5,��쓌,3.4
2023/05/09,17:00,1.5,��쓌,3.4
2023/05/09,17:10,1.5,��쓌,3.6
2023/05/09,17:20,1.5,��쓌,3.2
2023/05/09,17:30,1.5,��쓌,3.4
2023/05/09,17:40,1.5,��,3.0
2023/05/09,17:50,1.5,��,2.8
2023/05/09,18:00,1.5,��,3.0
2023/05/09,18:10,1.4,��쐼,3.1
2023/05/09,18:20,1.4,��,3.1
2023/05/09,18:30,1.5,��쐼,2.4
2023/05/09,18:40,1.5,��쐼,2.6
2023/05/09,18:50,1.5,��쐼,2.5
2023/05/09,19:00,1.4,��쐼,2.1
2023/05/09,19:10,1.4,�쐼,0.9
2023/05/09,19:20,1.4,�쐼,0.7
2023/05/09,19:30,1.4,���쐼,0.5
2023/05/09,19:40,1.4,-,CALM
2023/05/09,19:50,1.5,-,CALM
2023/05/09,20:00,1.4,-,CALM
2023/05/09,20:10,1.5,��,0.6
2023/05/09,20:20,1.5,��,0.8
2023/05/09,20:30,1.4,��,0.6
2023/05/09,20:40,1.5,-,CALM
2023/05/09,20:50,1.5,-,CALM
2023/05/09,21:00,1.5,-,CALM
2023/05/09,21:10,1.5,-,CALM
2023/05/09,21:20,1.5,-,CALM
2023/05/09,21:30,1.5,��,0.8
2023/05/09,21:40,1.5,��,0.6
2023/05/09,21:50,1.5,-,CALM
2023/05/09,22:00,1.4,���쐼,0.5
2023/05/09,22:10,1.5,��,0.8
2023/05/09,22:20,1.5,-,CALM
2023/05/09,22:30,1.4,��,0.7
2023/05/09,22:40,1.5,���쐼,0.8
2023/05/09,22:50,1.5,��,0.9
2023/05/09,23:00,1.5,��,0.7
2023/05/09,23:10,1.5,��,1.0
2023/05/09,23:20,1.5,��,0.8
2023/05/09,23:30,1.5,��,1.0
2023/05/09,23:40,1.5,��,0.8
2023/05/09,23:50,1.5,-,CALM
